FW1695 Weather Reports


Display with metric or nautical units.
time (UTC)temp
F
wind
direction
speed
MPH
gust
MPH
rain 1hr
in
rain 24hr
in
rain mn
in
humidity
%
barometer
mb
20190215190240 79 78 6.0 12.0 0.00 0.00 0.00 32 1021.4
20190215185552 78 173 6.0 12.0 0.00 0.00 0.00 33 1021.5
20190215185047 78 121 5.0 15.0 0.00 0.00 0.00 32 1021.8
20190215184629 78 91 5.0 12.0 0.00 0.00 0.00 32 1021.7
20190215184048 78 76 6.0 12.0 0.00 0.00 0.00 32 1021.9
20190215183545 78 214 3.0 18.0 0.00 0.00 0.00 32 1021.8
20190215183124 77 65 10.0 18.0 0.00 0.00 0.00 32 1022.0
20190215182542 77 62 2.0 13.0 0.00 0.00 0.00 33 1021.9
20190215182041 77 91 5.0 17.0 0.00 0.00 0.00 34 1022.0
20190215181603 78 52 4.0 17.0 0.00 0.00 0.00 35 1022.3
20190215181039 77 51 5.0 14.0 0.00 0.00 0.00 34 1022.3
20190215180536 77 11 5.0 13.0 0.00 0.00 0.00 35 1022.5
20190215180116 76 68 2.0 18.0 0.00 0.00 0.00 36 1022.5
20190215175540 76 79 7.0 18.0 0.00 0.00 0.00 36 1022.6
20190215175035 75 58 4.0 10.0 0.00 0.00 0.00 37 1022.7
20190215174542 75 217 3.0 15.0 0.00 0.00 0.00 37 1022.8
20190215174035 75 57 7.0 15.0 0.00 0.00 0.00 37 1022.8
20190215173531 75 37 3.0 10.0 0.00 0.00 0.00 37 1023.0
20190215173033 74 120 4.0 11.0 0.00 0.00 0.00 36 1023.1
20190215172529 74 150 3.0 11.0 0.00 0.00 0.00 36 1023.2
20190215172034 74 359 1.0 11.0 0.00 0.00 0.00 37 1023.3
20190215171634 74 75 4.0 11.0 0.00 0.00 0.00 38 1023.3
20190215171026 73 73 5.0 12.0 0.00 0.00 0.00 39 1023.3
20190215170528 72 77 7.0 12.0 0.00 0.00 0.00 40 1023.3
20190215170048 73 90 5.0 9.0 0.00 0.00 0.00 40 1023.4
20190215165522 72 70 2.0 11.0 0.00 0.00 0.00 40 1023.4
20190215165023 72 123 3.0 8.0 0.00 0.00 0.00 42 1023.6
20190215164541 72 98 1.0 8.0 0.00 0.00 0.00 43 1023.5
20190215164022 72 108 4.0 8.0 0.00 0.00 0.00 43 1023.5
20190215163525 71 101 3.0 9.0 0.00 0.00 0.00 43 1023.6
20190215163036 71 155 2.0 9.0 0.00 0.00 0.00 45 1023.6
20190215162517 71 105 2.0 5.0 0.00 0.00 0.00 44 1023.9
20190215162017 70 89 2.0 6.0 0.00 0.00 0.00 45 1023.9
20190215161526 70 80 2.0 6.0 0.00 0.00 0.00 46 1024.0
20190215161018 69 114 3.0 6.0 0.00 0.00 0.00 46 1024.1
20190215160512 69 104 1.0 5.0 0.00 0.00 0.00 47 1024.1
20190215160031 68 158 0.0 3.0 0.00 0.00 0.00 47 1024.1
20190215155511 68 148 0.0 1.0 0.00 0.00 0.00 47 1024.2
20190215155009 67 152 0.0 1.0 0.00 0.00 0.00 49 1024.1
20190215154531 67 164 0.0 1.0 0.00 0.00 0.00 48 1024.1
20190215154009 67 166 0.0 1.0 0.00 0.00 0.00 48 1024.1
20190215153507 67 167 0.0 1.0 0.00 0.00 0.00 49 1024.0
20190215153013 65 142 0.0 1.0 0.00 0.00 0.00 50 1024.1
20190215152505 65 141 0.0 2.0 0.00 0.00 0.00 51 1024.0
20190215152010 64 155 0.0 2.0 0.00 0.00 0.00 52 1024.0
20190215151515 64 138 0.0 2.0 0.00 0.00 0.00 52 1024.0
20190215151004 64 136 0.0 2.0 0.00 0.00 0.00 52 1023.9
20190215150504 64 135 0.0 2.0 0.00 0.00 0.00 52 1023.8
20190215150002 63 139 0.0 3.0 0.00 0.00 0.00 54 1023.7
20190215145504 63 136 0.0 3.0 0.00 0.00 0.00 53 1023.6
20190215145108 63 152 0.0 2.0 0.00 0.00 0.00 53 1023.5
20190215144653 64 168 0.0 1.0 0.00 0.00 0.00 53 1023.4
20190215144100 63 171 0.0 0.0 0.00 0.00 0.00 55 1023.4
20190215143603 62 171 0.0 0.0 0.00 0.00 0.00 57 1023.3
20190215143259 61 171 0.0 0.0 0.00 0.00 0.00 58 1023.2
20190215142602 60 171 0.0 0.0 0.00 0.00 0.00 60 1023.3
20190215142057 59 171 0.0 0.0 0.00 0.00 0.00 61 1023.2
20190215141657 59 171 0.0 0.0 0.00 0.00 0.00 60 1023.2
20190215141057 58 171 0.0 0.0 0.00 0.00 0.00 60 1023.2
20190215140556 57 171 0.0 0.0 0.00 0.00 0.00 63 1023.2
20190215140141 55 171 0.0 0.0 0.00 0.00 0.00 67 1023.1
20190215135555 53 171 0.0 0.0 0.00 0.00 0.00 69 1023.1
20190215135055 53 171 0.0 0.0 0.00 0.00 0.00 69 1023.1
20190215134704 52 171 0.0 0.0 0.00 0.00 0.00 70 1023.1
20190215134053 52 172 0.0 0.0 0.00 0.00 0.00 72 1023.0
20190215133552 52 172 0.0 0.0 0.00 0.00 0.00 72 1022.9
20190215133159 52 172 0.0 0.0 0.00 0.00 0.00 72 1022.8
20190215132552 52 172 0.0 0.0 0.00 0.00 0.00 72 1022.7
20190215132055 52 172 0.0 0.0 0.00 0.00 0.00 72 1022.7
20190215131637 52 172 0.0 0.0 0.00 0.00 0.00 71 1022.6
20190215131053 52 172 0.0 0.0 0.00 0.00 0.00 70 1022.5
20190215130548 53 172 0.0 0.0 0.00 0.00 0.00 70 1022.5
20190215130146 53 172 0.0 0.0 0.00 0.00 0.00 69 1022.5
20190215125552 53 172 0.0 0.0 0.00 0.00 0.00 69 1022.4
20190215125051 53 172 0.0 0.0 0.00 0.00 0.00 70 1022.4
20190215124705 53 172 0.0 0.0 0.00 0.00 0.00 70 1022.4
20190215124045 53 172 0.0 0.0 0.00 0.00 0.00 69 1022.4
20190215123544 53 172 0.0 0.0 0.00 0.00 0.00 70 1022.4
20190215123146 53 172 0.0 0.0 0.00 0.00 0.00 70 1022.3
20190215122544 53 172 0.0 0.0 0.00 0.00 0.00 70 1022.2
20190215122049 53 172 0.0 0.0 0.00 0.00 0.00 69 1022.2
20190215121633 53 172 0.0 0.0 0.00 0.00 0.00 69 1022.2
20190215121044 54 172 0.0 0.0 0.00 0.00 0.00 69 1022.1
20190215120540 54 172 0.0 0.0 0.00 0.00 0.00 68 1021.9
20190215120055 54 172 0.0 0.0 0.00 0.00 0.00 68 1021.9
20190215115540 54 172 0.0 0.0 0.00 0.00 0.00 67 1021.9
20190215115041 54 172 0.0 0.0 0.00 0.00 0.00 66 1021.7
20190215114610 55 175 0.0 0.0 0.00 0.00 0.00 65 1021.9
20190215114039 55 175 0.0 0.0 0.00 0.00 0.00 65 1021.8
20190215113540 55 174 0.0 0.0 0.00 0.00 0.00 66 1021.7
20190215113159 55 174 0.0 0.0 0.00 0.00 0.00 67 1021.7
20190215112535 55 172 0.0 0.0 0.00 0.00 0.00 66 1021.7
20190215112034 55 172 0.0 0.0 0.00 0.00 0.00 64 1021.6
20190215111549 55 172 0.0 0.0 0.00 0.00 0.00 64 1021.4
20190215111033 55 153 0.0 0.0 0.00 0.00 0.00 64 1021.4
20190215110532 55 145 0.0 0.0 0.00 0.00 0.00 64 1021.5
20190215110115 56 144 0.0 0.0 0.00 0.00 0.00 63 1021.5
20190215105530 56 144 0.0 0.0 0.00 0.00 0.00 62 1021.5
20190215105030 56 143 0.0 0.0 0.00 0.00 0.00 61 1021.5
20190215104547 56 143 0.0 0.0 0.00 0.00 0.00 61 1021.4
20190215104028 56 138 0.0 0.0 0.00 0.00 0.00 60 1021.4
20190215103528 56 136 0.0 0.0 0.00 0.00 0.00 60 1021.3
20190215103047 57 136 0.0 0.0 0.00 0.00 0.00 59 1021.3
20190215102526 57 136 0.0 0.0 0.00 0.00 0.00 59 1021.3
20190215102025 57 136 0.0 0.0 0.00 0.00 0.00 59 1021.2
20190215101621 57 135 0.0 0.0 0.00 0.00 0.00 59 1021.2
20190215101030 57 135 0.0 0.0 0.00 0.00 0.00 59 1021.2
20190215100525 57 134 0.0 0.0 0.00 0.00 0.00 58 1021.2
20190215100023 58 134 0.0 0.0 0.00 0.00 0.00 57 1021.2
20190215095522 58 133 0.0 1.0 0.00 0.00 0.00 57 1021.2
20190215095023 58 131 0.0 1.0 0.00 0.00 0.00 57 1021.2
20190215094525 58 158 0.0 0.0 0.00 0.00 0.00 57 1021.3
20190215094025 58 171 0.0 3.0 0.00 0.00 0.00 57 1021.3
20190215093524 58 144 0.0 3.0 0.00 0.00 0.00 58 1021.4
20190215093043 58 136 0.0 1.0 0.00 0.00 0.00 58 1021.5
20190215092526 58 133 0.0 2.0 0.00 0.00 0.00 59 1021.5
20190215092021 58 132 0.0 2.0 0.00 0.00 0.00 59 1021.6
20190215091557 58 134 0.0 1.0 0.00 0.00 0.00 59 1021.7
20190215091017 58 132 0.0 1.0 0.00 0.00 0.00 59 1021.7
20190215090517 58 128 0.0 2.0 0.00 0.00 0.00 59 1021.7
20190215090031 58 131 0.0 1.0 0.00 0.00 0.00 58 1021.8
20190215085516 59 132 0.0 2.0 0.00 0.00 0.00 58 1021.9
20190215085014 59 128 0.0 2.0 0.00 0.00 0.00 57 1021.9
20190215084014 59 128 0.0 3.0 0.00 0.00 0.00 55 1022.1
20190215083513 59 118 1.0 3.0 0.00 0.00 0.00 54 1022.0
20190215083024 59 112 1.0 3.0 0.00 0.00 0.00 53 1022.0
20190215082515 59 131 0.0 3.0 0.00 0.00 0.00 53 1022.2
20190215082013 59 129 1.0 3.0 0.00 0.00 0.00 54 1022.1
20190215081519 59 142 0.0 0.0 0.00 0.00 0.00 54 1022.2
20190215081014 59 142 0.0 0.0 0.00 0.00 0.00 53 1022.2
20190215080516 59 142 0.0 0.0 0.00 0.00 0.00 54 1022.2
20190215080027 58 161 0.0 0.0 0.00 0.00 0.00 55 1022.2
20190215075512 58 168 0.0 0.0 0.00 0.00 0.00 56 1022.1
20190215075010 58 186 0.0 0.0 0.00 0.00 0.00 56 1022.3
20190215074533 59 186 0.0 0.0 0.00 0.00 0.00 55 1022.4
20190215074008 59 186 0.0 0.0 0.00 0.00 0.00 55 1022.5
20190215073511 59 196 0.0 0.0 0.00 0.00 0.00 55 1022.5
20190215073017 59 200 0.0 0.0 0.00 0.00 0.00 54 1022.6
20190215072506 60 200 0.0 0.0 0.00 0.00 0.00 53 1022.5
20190215072010 60 201 0.0 0.0 0.00 0.00 0.00 54 1022.6
20190215071513 59 154 0.0 0.0 0.00 0.00 0.00 54 1022.7
20190215071004 60 153 0.0 1.0 0.00 0.00 0.00 54 1022.6
20190215070507 60 150 0.0 1.0 0.00 0.00 0.00 54 1022.6
20190215070004 60 155 0.0 0.0 0.00 0.00 0.00 54 1022.5
20190215065504 60 155 0.0 0.0 0.00 0.00 0.00 54 1022.7
20190215065004 60 155 0.0 0.0 0.00 0.00 0.00 54 1022.6
20190215064637 60 155 0.0 0.0 0.00 0.00 0.00 54 1022.7
20190215064059 60 155 0.0 1.0 0.00 0.00 0.00 53 1022.8
20190215063559 61 174 0.0 1.0 0.00 0.00 0.00 53 1022.8
20190215063226 61 184 0.0 1.0 0.00 0.00 0.00 53 1022.8
20190215062556 61 139 0.0 1.0 0.00 0.00 0.00 52 1022.8
20190215062059 62 136 0.0 1.0 0.00 0.00 0.00 50 1022.7
20190215061656 63 135 0.0 1.0 0.00 0.00 0.00 48 1022.7
20190215061052 63 133 0.0 3.0 0.00 0.00 0.00 47 1022.8
20190215060552 64 122 1.0 4.0 0.00 0.00 0.00 47 1022.8
20190215060208 64 105 2.0 4.0 0.00 0.00 0.00 46 1022.8
20190215055549 64 125 0.0 4.0 0.00 0.00 0.00 46 1022.8
20190215055048 64 112 1.0 6.0 0.00 0.00 0.00 45 1022.9
20190215054711 64 111 2.0 6.0 0.00 0.00 0.00 45 1022.9
20190215054053 64 112 2.0 7.0 0.00 0.00 0.00 45 1023.0
20190215053548 64 121 1.0 5.0 0.00 0.00 0.00 45 1022.9
20190215053115 64 82 2.0 5.0 0.00 0.00 0.00 45 1023.0
20190215052552 64 128 1.0 4.0 0.00 0.00 0.00 45 1023.0
20190215052052 63 133 0.0 5.0 0.00 0.00 0.00 45 1023.1
20190215051651 63 289 0.0 3.0 0.00 0.00 0.00 45 1023.1
20190215051048 62 149 0.0 1.0 0.00 0.00 0.00 45 1023.1
20190215050547 62 188 0.0 1.0 0.00 0.00 0.00 46 1023.0
20190215050148 62 155 0.0 1.0 0.00 0.00 0.00 45 1022.9
20190215045549 62 152 0.0 0.0 0.00 0.00 0.00 46 1023.0
20190215045047 62 152 0.0 0.0 0.00 0.00 0.00 46 1023.0
20190215044717 62 152 0.0 0.0 0.00 0.00 0.00 46 1023.0
20190215044047 63 151 0.0 0.0 0.00 0.00 0.00 44 1022.9
20190215043548 63 151 0.0 0.0 0.00 0.00 0.00 43 1022.9
20190215043145 64 150 0.0 1.0 0.00 0.00 0.00 42 1022.9
20190215042548 64 150 0.0 1.0 0.00 0.00 0.00 42 1022.9
20190215042048 64 166 0.0 1.0 0.00 0.00 0.00 41 1022.9
20190215041625 64 148 0.0 1.0 0.00 0.00 0.00 41 1022.8
20190215041046 64 143 0.0 1.0 0.00 0.00 0.00 41 1022.9
20190215040545 65 142 0.0 1.0 0.00 0.00 0.00 41 1022.9
20190215040122 65 154 0.0 2.0 0.00 0.00 0.00 41 1022.8
20190215035547 65 186 0.0 2.0 0.00 0.00 0.00 40 1022.8
20190215035049 65 138 0.0 1.0 0.00 0.00 0.00 41 1022.8
20190215034603 65 136 0.0 1.0 0.00 0.00 0.00 40 1022.8
20190215034045 65 138 0.0 1.0 0.00 0.00 0.00 40 1022.7
20190215033547 65 144 0.0 1.0 0.00 0.00 0.00 40 1022.6
20190215033053 65 148 0.0 1.0 0.00 0.00 0.00 40 1022.6
20190215032545 64 147 0.0 0.0 0.00 0.00 0.00 40 1022.5
20190215032043 65 143 0.0 0.0 0.00 0.00 0.00 40 1022.5
20190215031633 65 143 0.0 0.0 0.00 0.00 0.00 40 1022.4
20190215031043 65 142 0.0 0.0 0.00 0.00 0.00 39 1022.4
20190215030543 66 141 0.0 0.0 0.00 0.00 0.00 39 1022.2
20190215030109 66 141 0.0 1.0 0.00 0.00 0.00 38 1022.1
20190215025545 66 151 0.0 1.0 0.00 0.00 0.00 38 1022.1
20190215025045 66 150 0.0 1.0 0.00 0.00 0.00 38 1022.1
20190215024657 66 141 0.0 1.0 0.00 0.00 0.00 38 1022.0
20190215024044 67 141 0.0 1.0 0.00 0.00 0.00 37 1022.0
20190215023541 67 139 0.0 1.0 0.00 0.00 0.00 36 1021.9
20190215023159 67 136 0.0 1.0 0.00 0.00 0.00 37 1021.8
20190215022543 68 160 0.0 2.0 0.00 0.00 0.00 36 1021.6
20190215022042 68 148 0.0 2.0 0.00 0.00 0.00 36 1021.5
20190215021636 68 148 0.0 3.0 0.00 0.00 0.00 36 1021.4
20190215021040 68 139 0.0 1.0 0.00 0.00 0.00 36 1021.2
20190215020541 68 150 0.0 2.0 0.00 0.00 0.00 36 1021.1
20190215020105 68 139 0.0 2.0 0.00 0.00 0.00 36 1021.1
20190215015539 68 136 0.0 2.0 0.00 0.00 0.00 36 1021.0
20190215015040 69 139 0.0 3.0 0.00 0.00 0.00 36 1020.8
20190215014618 69 132 0.0 3.0 0.00 0.00 0.00 35 1020.6
20190215014039 69 122 0.0 2.0 0.00 0.00 0.00 36 1020.6
20190215013539 69 134 0.0 3.0 0.00 0.00 0.00 36 1020.6
20190215013127 69 129 0.0 3.0 0.00 0.00 0.00 36 1020.5
20190215012539 70 144 0.0 3.0 0.00 0.00 0.00 37 1020.4
20190215012042 70 141 0.0 1.0 0.00 0.00 0.00 37 1020.4
20190215011551 70 140 0.0 1.0 0.00 0.00 0.00 37 1020.4
20190215011043 71 139 0.0 2.0 0.00 0.00 0.00 35 1020.4
20190215010537 71 135 0.0 3.0 0.00 0.00 0.00 34 1020.3
20190215010205 72 113 1.0 3.0 0.00 0.00 0.00 34 1020.2
20190215005537 72 134 0.0 4.0 0.00 0.00 0.00 34 1020.1
20190215005041 73 106 0.0 4.0 0.00 0.00 0.00 33 1020.1
20190215004644 73 125 1.0 6.0 0.00 0.00 0.00 33 1020.0
20190215004037 74 103 3.0 6.0 0.00 0.00 0.00 32 1020.1
20190215003538 74 136 1.0 5.0 0.00 0.00 0.00 32 1020.0
20190215003128 75 79 2.0 6.0 0.00 0.00 0.00 31 1020.0
20190215002539 75 89 2.0 9.0 0.00 0.00 0.00 31 1019.9
20190215002037 76 92 5.0 10.0 0.00 0.00 0.00 30 1019.9
20190215001613 76 119 3.0 10.0 0.00 0.00 0.00 30 1019.8
20190215001035 77 115 5.0 9.0 0.00 0.00 0.00 30 1019.8
20190215000535 77 88 5.0 9.0 0.00 0.00 0.00 30 1019.8
20190215000059 77 73 2.0 9.0 0.00 0.00 0.00 29 1019.7
20190214235535 77 92 4.0 9.0 0.00 0.00 0.00 29 1019.8
20190214235039 78 78 4.0 12.0 0.00 0.00 0.00 29 1019.8
20190214234614 78 82 6.0 12.0 0.00 0.00 0.00 29 1019.9
20190214234037 78 46 4.0 13.0 0.00 0.00 0.00 29 1019.8
20190214233534 78 75 8.0 13.0 0.00 0.00 0.00 29 1019.8
20190214233116 78 68 5.0 9.0 0.00 0.00 0.00 29 1019.8
20190214232536 78 84 2.0 8.0 0.00 0.00 0.00 29 1019.8
20190214232034 78 69 4.0 11.0 0.00 0.00 0.00 29 1019.9
20190214231616 78 76 5.0 12.0 0.00 0.00 0.00 29 1019.9
20190214231037 78 63 7.0 11.0 0.00 0.00 0.00 28 1019.9
20190214230127 78 87 7.0 12.0 0.00 0.00 0.00 28 1019.8
20190214225537 78 25 8.0 12.0 0.00 0.00 0.00 28 1019.7
20190214225033 78 107 6.0 13.0 0.00 0.00 0.00 28 1019.7
20190214224637 78 72 5.0 14.0 0.00 0.00 0.00 28 1019.7
20190214224034 78 78 8.0 14.0 0.00 0.00 0.00 28 1019.8
20190214223534 78 118 4.0 12.0 0.00 0.00 0.00 28 1019.7
20190214223114 78 102 7.0 14.0 0.00 0.00 0.00 28 1019.7
20190214222534 78 105 6.0 14.0 0.00 0.00 0.00 28 1019.8
20190214222032 78 79 9.0 16.0 0.00 0.00 0.00 28 1019.8
20190214221610 79 75 7.0 16.0 0.00 0.00 0.00 28 1019.8
20190214221034 78 124 5.0 16.0 0.00 0.00 0.00 29 1019.9
20190214220529 78 98 8.0 16.0 0.00 0.00 0.00 29 1019.9
20190214220105 78 110 6.0 16.0 0.00 0.00 0.00 29 1019.9
20190214215528 78 61 8.0 16.0 0.00 0.00 0.00 29 1019.9
20190214215027 78 111 6.0 13.0 0.00 0.00 0.00 29 1019.9
20190214214556 78 60 7.0 17.0 0.00 0.00 0.00 29 1020.0
20190214214027 78 94 9.0 17.0 0.00 0.00 0.00 29 1020.0
20190214213532 78 55 8.0 14.0 0.00 0.00 0.00 30 1019.9
20190214213040 78 63 8.0 15.0 0.00 0.00 0.00 29 1020.1
20190214212528 78 113 8.0 15.0 0.00 0.00 0.00 30 1020.0
20190214212027 78 143 6.0 13.0 0.00 0.00 0.00 29 1020.1
20190214211613 78 98 5.0 13.0 0.00 0.00 0.00 30 1020.0
20190214211024 78 46 9.0 15.0 0.00 0.00 0.00 29 1020.0
20190214210526 77 63 8.0 19.0 0.00 0.00 0.00 30 1020.1
20190214210036 78 29 11.0 19.0 0.00 0.00 0.00 29 1020.1
20190214205524 77 73 7.0 21.0 0.00 0.00 0.00 30 1020.0
20190214205025 77 46 12.0 21.0 0.00 0.00 0.00 29 1020.1
20190214204548 77 86 10.0 19.0 0.00 0.00 0.00 29 1020.2
20190214204021 78 84 8.0 17.0 0.00 0.00 0.00 30 1020.2
20190214203520 77 69 4.0 21.0 0.00 0.00 0.00 29 1020.2
20190214203026 78 113 5.0 17.0 0.00 0.00 0.00 30 1020.2
20190214202517 78 169 5.0 19.0 0.00 0.00 0.00 30 1020.3
20190214202016 77 63 7.0 19.0 0.00 0.00 0.00 30 1020.4
20190214201531 77 111 7.0 18.0 0.00 0.00 0.00 30 1020.6
20190214201013 77 67 5.0 18.0 0.00 0.00 0.00 30 1020.7
20190214200512 77 63 12.0 18.0 0.00 0.00 0.00 31 1020.9
20190214200023 77 132 6.0 21.0 0.00 0.00 0.00 31 1021.0
20190214195513 77 63 11.0 21.0 0.00 0.00 0.00 30 1021.0
20190214195015 77 46 7.0 19.0 0.00 0.00 0.00 31 1021.0
20190214194520 76 94 10.0 19.0 0.00 0.00 0.00 31 1021.1
20190214194010 77 79 10.0 18.0 0.00 0.00 0.00 30 1021.3
20190214193512 77 1 5.0 19.0 0.00 0.00 0.00 30 1021.4
20190214193029 76 43 10.0 19.0 0.00 0.00 0.00 30 1021.5
20190214192512 76 135 9.0 19.0 0.00 0.00 0.00 30 1021.6
20190214192006 76 92 12.0 19.0 0.00 0.00 0.00 30 1021.7
20190214191514 76 56 9.0 19.0 0.00 0.00 0.00 29 1021.8
20190214191004 76 89 10.0 19.0 0.00 0.00 0.00 28 1022.0
20190214190505 76 57 8.0 17.0 0.00 0.00 0.00 30 1022.1